DW8248 Weather Reports


time (UTC)temp
F
wind
direction
speed
knots
gust
knots
rain 1hr
in
rain 24hr
in
rain mn
in
humidity
%
barometer
mb
20181021042020 79 254 4.3 6.1 0.00 0.00 0.00 87 1015.5
20181021041013 79 243 4.3 6.1 0.00 0.00 0.00 87 1015.5
20181021035955 79 244 4.3 6.1 0.00 0.00 0.00 87 1015.6
20181021034951 79 249 4.3 6.1 0.00 0.00 0.00 87 1015.6
20181021034001 79 236 4.3 7.0 0.00 0.00 0.00 86 1015.7
20181021032938 79 238 4.3 7.0 0.00 0.00 0.00 86 1015.7
20181021031916 79 248 4.3 7.0 0.00 0.00 0.00 86 1015.9
20181021030841 79 255 6.1 7.8 0.00 0.00 0.00 85 1015.9
20181021025839 79 257 7.0 8.7 0.00 0.00 0.00 85 1015.9
20181021024849 79 261 7.0 11.3 0.00 0.00 0.00 85 1015.8
20181021023905 79 259 8.7 11.3 0.00 0.00 0.00 85 1015.9
20181021022836 80 252 7.0 16.5 0.00 0.00 0.00 85 1015.7
20181021021817 79 202 11.3 16.5 0.00 0.00 0.00 85 1015.5
20181021020819 80 178 6.1 9.6 0.00 0.00 0.00 86 1015.2
20181021015750 80 171 7.0 9.6 0.00 0.00 0.00 86 1015.1
20181021014806 80 182 6.1 9.6 0.00 0.00 0.00 84 1014.9
20181021013811 81 179 6.1 8.7 0.00 0.00 0.00 83 1015.0
20181021012739 82 175 4.3 7.8 0.00 0.00 0.00 81 1014.9
20181021011725 81 153 4.3 7.8 0.00 0.00 0.00 80 1014.9
20181021010728 81 163 2.6 6.1 0.00 0.00 0.00 81 1014.8
20181021005744 81 148 3.5 6.1 0.00 0.00 0.00 80 1014.7
20181021004801 81 148 2.6 6.1 0.00 0.00 0.00 80 1014.7
20181021003807 81 143 2.6 6.1 0.00 0.00 0.00 80 1014.7
20181021002742 81 145 2.6 5.2 0.00 0.00 0.00 80 1014.5
20181021001744 81 155 2.6 5.2 0.00 0.00 0.00 80 1014.5
20181021000719 81 148 1.7 6.1 0.00 0.00 0.00 79 1014.4
20181020235709 81 130 2.6 6.1 0.00 0.00 0.00 78 1014.3
20181020234729 82 130 2.6 5.2 0.00 0.00 0.00 77 1014.2
20181020233702 82 143 1.7 3.5 0.00 0.00 0.00 77 1014.2
20181020232706 82 136 1.7 5.2 0.00 0.00 0.00 77 1014.2
20181020231634 82 145 2.6 5.2 0.00 0.00 0.00 77 1014.1
20181020230618 82 138 2.6 5.2 0.00 0.00 0.00 77 1014.0
20181020225622 82 125 1.7 5.2 0.00 0.00 0.00 76 1013.9
20181020224551 82 130 1.7 6.1 0.00 0.00 0.00 76 1013.9
20181020223520 82 120 2.6 6.1 0.00 0.00 0.00 75 1013.8
20181020222518 83 136 2.6 5.2 0.00 0.00 0.00 75 1013.8
20181020221532 83 132 2.6 5.2 0.00 0.00 0.00 75 1013.8
20181020220521 83 134 3.5 6.1 0.00 0.00 0.00 75 1013.7
20181020215508 83 131 2.6 7.0 0.00 0.00 0.00 75 1013.7
20181020214519 83 108 3.5 7.0 0.00 0.00 0.00 75 1013.8
20181020213517 84 106 2.6 5.2 0.00 0.00 0.00 74 1013.9
20181020212525 84 123 2.6 6.1 0.00 0.00 0.00 74 1013.8
20181020211459 84 136 3.5 7.0 0.00 0.00 0.00 73 1013.9
20181020210456 84 115 3.5 7.0 0.00 0.00 0.00 73 1013.9
20181020205442 84 101 3.5 7.0 0.00 0.00 0.00 72 1013.9
20181020204426 84 81 2.6 7.0 0.00 0.00 0.00 73 1014.0
20181020203427 84 66 2.6 6.1 0.00 0.00 0.00 73 1014.1
20181020202437 83 113 3.5 7.0 0.00 0.00 0.00 74 1014.1
20181020201432 84 111 2.6 7.0 0.00 0.00 0.00 73 1014.2
20181020200417 84 107 3.5 7.0 0.00 0.00 0.00 74 1014.3
20181020195418 84 99 3.5 7.0 0.00 0.00 0.00 74 1014.4
20181020194347 84 96 3.5 7.8 0.00 0.00 0.00 74 1014.4
20181020193356 84 94 3.5 7.8 0.00 0.00 0.00 73 1014.5
20181020192323 84 101 3.5 7.8 0.00 0.00 0.00 74 1014.6
20181020191335 84 61 2.6 7.0 0.00 0.00 0.00 72 1014.7
20181020190350 84 93 2.6 7.8 0.00 0.00 0.00 73 1014.8
20181020185332 84 90 4.3 7.8 0.00 0.00 0.00 74 1014.8
20181020184350 84 78 3.5 7.0 0.00 0.00 0.00 74 1015.0
20181020183315 84 110 2.6 7.0 0.00 0.00 0.00 74 1015.3
20181020182308 83 101 3.5 8.7 0.00 0.00 0.00 73 1015.4
20181020181315 84 73 2.6 8.7 0.00 0.00 0.00 75 1015.5
20181020180320 83 80 4.3 7.8 0.00 0.00 0.00 74 1015.7
20181020175327 84 82 2.6 7.0 0.00 0.00 0.00 74 1016.0
20181020174304 84 53 3.5 7.0 0.00 0.00 0.00 72 1016.2
20181020173259 84 35 3.5 7.0 0.00 0.00 0.00 73 1016.4
20181020172225 84 94 2.6 7.0 0.00 0.00 0.00 73 1016.7
20181020171235 84 86 3.5 7.0 0.00 0.00 0.00 73 1016.9
20181020170204 85 44 1.7 6.1 0.00 0.00 0.00 71 1017.0
20181020165133 86 71 1.7 5.2 0.00 0.00 0.00 68 1017.3
20181020164145 88 91 0.0 4.3 0.00 0.00 0.00 64 1017.5
20181020163129 89 288 0.0 0.0 0.00 0.00 0.00 59 1017.6
20181020162057 88 288 0.0 0.0 0.00 0.00 0.00 63 1017.8
20181020161022 86 288 0.0 2.6 0.00 0.00 0.00 66 1017.9
20181020160016 84 233 0.0 0.0 0.00 0.00 0.00 69 1018.1
20181020154951 84 233 0.0 0.0 0.00 0.00 0.00 71 1018.2
20181020153936 84 261 0.0 1.7 0.00 0.00 0.00 71 1018.4
20181020152903 83 276 0.0 0.0 0.00 0.00 0.00 73 1018.4
20181020151853 83 276 0.9 0.9 0.00 0.00 0.00 73 1018.4
20181020150820 82 269 0.0 1.7 0.00 0.00 0.00 74 1018.7
20181020145800 82 269 0.0 1.7 0.00 0.00 0.00 76 1018.7
20181020144807 82 269 1.7 4.3 0.00 0.00 0.00 78 1018.8
20181020143800 82 296 0.9 2.6 0.00 0.00 0.00 80 1018.8
20181020142818 81 277 0.9 2.6 0.00 0.00 0.00 82 1018.8
20181020141804 80 277 1.7 4.3 0.00 0.00 0.00 83 1018.8
20181020140802 80 267 1.7 4.3 0.00 0.00 0.00 83 1018.8
20181020135733 80 284 1.7 4.3 0.00 0.00 0.00 83 1018.9
20181020134731 80 285 2.6 5.2 0.00 0.00 0.00 85 1018.8
20181020133705 80 288 3.5 5.2 0.00 0.00 0.00 85 1018.6
20181020132634 80 292 2.6 5.2 0.00 0.00 0.00 85 1018.5
20181020131627 80 296 2.6 3.5 0.00 0.00 0.00 86 1018.3
20181020130603 79 295 2.6 3.5 0.00 0.00 0.00 88 1018.2
20181020125527 78 294 2.6 3.5 0.00 0.00 0.00 90 1018.1
20181020124548 78 301 2.6 3.5 0.00 0.00 0.00 91 1017.9
20181020123542 77 293 1.7 5.2 0.00 0.00 0.00 92 1018.0
20181020122544 77 295 2.6 5.2 0.00 0.00 0.00 92 1017.9
20181020121544 77 303 3.5 6.1 0.00 0.00 0.00 93 1017.9
20181020120532 77 306 4.3 5.2 0.00 0.00 0.00 93 1017.8
20181020115512 77 296 3.5 5.2 0.00 0.00 0.00 93 1017.8
20181020114514 77 299 3.5 5.2 0.00 0.00 0.00 93 1017.7
20181020113436 77 291 2.6 3.5 0.00 0.00 0.00 93 1017.7
20181020112457 77 296 3.5 6.1 0.00 0.00 0.00 92 1017.6
20181020111439 77 302 4.3 6.1 0.00 0.00 0.00 92 1017.7
20181020110455 77 294 5.2 6.1 0.00 0.00 0.00 92 1017.7
20181020105431 77 296 3.5 6.1 0.00 0.00 0.00 92 1017.6
20181020104411 77 293 3.5 6.1 0.00 0.00 0.00 92 1017.5
20181020103409 77 300 4.3 6.1 0.00 0.00 0.00 92 1017.5
20181020102338 77 300 3.5 5.2 0.00 0.00 0.00 91 1017.4
20181020101333 77 297 3.5 5.2 0.00 0.00 0.00 91 1017.4
20181020100352 77 296 2.6 5.2 0.00 0.00 0.00 91 1017.4
20181020095345 77 299 4.3 6.1 0.00 0.00 0.00 91 1017.4
20181020094318 77 295 5.2 6.1 0.00 0.00 0.00 91 1017.4
20181020093241 77 306 4.3 6.1 0.00 0.00 0.00 91 1017.3
20181020092232 77 302 5.2 7.0 0.00 0.00 0.00 91 1017.3
20181020091156 78 312 5.2 7.0 0.00 0.00 0.00 91 1017.3
20181020090138 77 309 4.3 7.0 0.00 0.00 0.00 91 1017.1
20181020085107 77 306 4.3 7.0 0.00 0.00 0.00 91 1017.1
20181020084048 78 322 4.3 6.1 0.00 0.00 0.00 91 1017.1
20181020083024 78 308 4.3 6.1 0.00 0.00 0.00 91 1017.1
20181020082014 77 302 4.3 6.1 0.00 0.00 0.00 91 1017.1
20181020080941 78 286 2.6 4.3 0.00 0.00 0.00 91 1017.1
20181020075933 78 286 2.6 5.2 0.00 0.00 0.00 90 1017.2
20181020074939 78 304 2.6 5.2 0.00 0.00 0.00 90 1017.3
20181020073918 78 295 2.6 3.5 0.00 0.00 0.00 90 1017.3
20181020072855 78 284 1.7 2.6 0.00 0.00 0.00 89 1017.5
20181020071906 78 292 0.9 2.6 0.00 0.00 0.00 89 1017.5
20181020070925 78 300 1.7 3.5 0.00 0.00 0.00 89 1017.6
20181020065854 78 294 2.6 4.3 0.00 0.00 0.00 89 1017.7
20181020064836 78 284 2.6 4.3 0.00 0.00 0.00 89 1017.8
20181020063809 78 295 2.6 5.2 0.00 0.00 0.00 88 1017.9
20181020062805 78 300 3.5 5.2 0.00 0.00 0.00 88 1018.1
20181020061744 78 295 3.5 5.2 0.00 0.00 0.00 88 1018.2
20181020060744 78 287 4.3 5.2 0.00 0.00 0.00 88 1018.3
20181020055741 79 279 3.5 5.2 0.00 0.00 0.00 88 1018.4
20181020054731 79 279 3.5 5.2 0.00 0.00 0.00 87 1018.4
20181020053703 79 268 3.5 5.2 0.00 0.00 0.00 86 1018.4
20181020052723 80 254 1.7 3.5 0.00 0.00 0.00 85 1018.4
20181020051724 79 146 0.0 0.0 0.00 0.00 0.00 83 1018.5
20181020050739 79 146 0.0 0.0 0.00 0.00 0.00 83 1018.6
20181020045802 80 146 0.9 1.7 0.00 0.00 0.00 82 1018.5
20181020044812 80 146 0.9 1.7 0.00 0.00 0.00 82 1018.6
20181020043758 80 146 0.9 2.6 0.00 0.00 0.00 82 1018.7
20181020042800 80 150 1.7 2.6 0.00 0.00 0.00 82 1018.8